Weather History for Pine River, MN

Change the Weather History Date:

Saturday, September 14, 2013

  Actual Average Record
Temperature  
Mean Temperature 56 °F -  
Max Temperature 69 °F 68 °F 82 °F (2006)
Min Temperature 44 °F 46 °F 33 °F (2007)
Degree Days  
Heating Degree Days 8    
Growing Degree Days 6 (Base 50)    
Moisture  
Dew Point 50 °F    
Average Humidity 86    
Maximum Humidity 100    
Minimum Humidity 56    
Precipitation  
Precipitation 0.83 in - - ()
Sea Level Pressure  
Sea Level Pressure 29.99 in    
Wind  
Wind Speed 4 mph (South)    
Max Wind Speed 14 mph    
Max Gust Speed 21 mph    
Visibility 10 miles    
Events Rain    
Averages and records for this station are not official NWS values.
T = Trace of Precipitation, MM = Missing Value Source: NWS Daily Summary

Daily Weather History Graph

Daily Weather History Graph

Search for Another Location

Airport:

Trip Planner

Search our weather history database for the weather conditions in past years. The results will help you decide how hot, cold, wet, or windy it might be!

Date:

Astronomy

Sep. 14, 2013 Rise Set
Actual Time 6:54 AM CDT 7:30 PM CDT
Civil Twilight 6:23 AM CDT 8:01 PM CDT
Nautical Twilight 5:47 AM CDT 8:37 PM CDT
Astronomical Twilight 5:09 AM CDT 9:14 PM CDT
Moon 4:26 PM CDT (9/14) 1:11 AM CDT (9/14)
Length of Visible Light 13h 37m
Length of Day
12h 36m
Waxing Gibbous, 72% of the Moon is Illuminated
Sep 14
Waxing Gibbous
Sep 19
Full
Sep 26
Last Quarter
Oct 4
New
Oct 11
First Quarter

Hourly Weather History & Observations

Time (CDT) Temp. Windchill Dew Point Humidity Pressure Visibility Wind Dir Wind Speed Gust Speed Precip Events Conditions
12:13 AM 46.4 °F 45.2 °F 44.6 °F 93% 30.07 in 10.0 mi South 3.5 mph - N/A   Clear
12:33 AM 48.2 °F - 44.6 °F 87% 30.06 in 10.0 mi South 4.6 mph - N/A   Clear
12:52 AM 48.2 °F - 44.6 °F 87% 30.07 in 10.0 mi South 3.5 mph - N/A   Clear
1:13 AM 50.0 °F - 44.6 °F 82% 30.06 in 10.0 mi South 5.8 mph - N/A   Clear
1:33 AM 51.8 °F - 44.6 °F 76% 30.05 in 10.0 mi South 5.8 mph - N/A   Clear
1:53 AM 51.8 °F - 46.4 °F 82% 30.06 in 10.0 mi South 5.8 mph - N/A   Clear
2:13 AM 50.0 °F - 44.6 °F 82% 30.05 in 10.0 mi Calm Calm - N/A   Clear
2:32 AM 50.0 °F - 44.6 °F 82% 30.04 in 10.0 mi South 3.5 mph - N/A   Clear
2:53 AM 48.2 °F - 42.8 °F 82% 30.04 in 10.0 mi SSE 3.5 mph - N/A   Clear
3:13 AM 46.4 °F 44.3 °F 42.8 °F 87% 30.04 in 10.0 mi South 4.6 mph - N/A   Clear
3:32 AM 48.2 °F - 42.8 °F 82% 30.04 in 10.0 mi Calm Calm - N/A   Clear
3:53 AM 48.2 °F - 42.8 °F 82% 30.04 in 10.0 mi Calm Calm - N/A   Clear
4:12 AM 46.4 °F - 42.8 °F 87% 30.03 in 10.0 mi Calm Calm - N/A   Clear
4:33 AM 46.4 °F - 42.8 °F 87% 30.03 in 10.0 mi Calm Calm - N/A   Clear
4:53 AM 46.4 °F - 42.8 °F 87% 30.03 in 10.0 mi Calm Calm - N/A   Clear
5:12 AM 44.6 °F - 42.8 °F 93% 30.02 in 10.0 mi Calm Calm - N/A   Clear
5:32 AM 44.6 °F - 42.8 °F 93% 30.02 in 10.0 mi Calm Calm - N/A   Clear
5:53 AM 46.4 °F 45.2 °F 42.8 °F 87% 30.02 in 10.0 mi SSE 3.5 mph - N/A   Clear
6:13 AM 44.6 °F 43.1 °F 42.8 °F 93% 30.01 in 10.0 mi SSE 3.5 mph - N/A   Clear
6:32 AM 46.4 °F 45.2 °F 42.8 °F 87% 30.01 in 10.0 mi SSE 3.5 mph - N/A   Clear
6:53 AM 46.4 °F - 44.6 °F 93% 30.01 in 10.0 mi Calm Calm - N/A   Clear
7:13 AM 44.6 °F 43.1 °F 42.8 °F 93% 30.01 in 10.0 mi SE 3.5 mph - N/A   Clear
7:33 AM 46.4 °F 45.2 °F 44.6 °F 93% 30.01 in 10.0 mi SSE 3.5 mph - N/A   Clear
7:52 AM 48.2 °F - 44.6 °F 87% 30.01 in 10.0 mi SE 3.5 mph - N/A   Clear
8:13 AM 51.8 °F - 46.4 °F 82% 30.01 in 10.0 mi SSE 3.5 mph - N/A   Clear
8:33 AM 53.6 °F - 48.2 °F 82% 30.00 in 10.0 mi SSE 4.6 mph - N/A   Clear
8:52 AM 55.4 °F - 48.2 °F 77% 30.00 in 10.0 mi South 4.6 mph - N/A   Clear
9:13 AM 57.2 °F - 48.2 °F 72% 29.99 in 10.0 mi South 5.8 mph - N/A   Clear
9:33 AM 59.0 °F - 50.0 °F 72% 29.99 in 10.0 mi South 4.6 mph - N/A   Clear
9:52 AM 60.8 °F - 50.0 °F 68% 29.99 in 10.0 mi South 5.8 mph - N/A   Clear
10:13 AM 62.6 °F - 51.8 °F 68% 29.98 in 10.0 mi SSE 5.8 mph - N/A   Clear
10:33 AM 64.4 °F - 51.8 °F 64% 29.98 in 10.0 mi SW 8.1 mph - N/A   Clear
10:53 AM 66.2 °F - 53.6 °F 64% 29.97 in 10.0 mi SSW 9.2 mph - N/A   Clear
11:12 AM 66.2 °F - 53.6 °F 64% 29.96 in 10.0 mi South 10.4 mph - N/A   Clear
11:33 AM 66.2 °F - 53.6 °F 64% 29.96 in 10.0 mi SSW 8.1 mph - N/A   Clear
11:52 AM 66.2 °F - 53.6 °F 64% 29.95 in 10.0 mi SSW 5.8 mph - N/A   Clear
12:13 PM 66.2 °F - 53.6 °F 64% 29.95 in 10.0 mi SSW 8.1 mph - N/A   Clear
12:33 PM 69.8 °F - 53.6 °F 56% 29.95 in 10.0 mi SSW 13.8 mph 19.6 mph N/A   Clear
12:53 PM 68.0 °F - 53.6 °F 60% 29.95 in 10.0 mi SSW 10.4 mph 19.6 mph N/A   Clear
1:12 PM 66.2 °F - 51.8 °F 60% 29.96 in 10.0 mi SW 11.5 mph 20.7 mph N/A   Clear
1:33 PM 64.4 °F - 53.6 °F 68% 29.95 in 10.0 mi SW 5.8 mph - N/A   Scattered Clouds
1:52 PM 66.2 °F - 53.6 °F 64% 29.95 in 10.0 mi SW 5.8 mph - N/A   Scattered Clouds
2:13 PM 64.4 °F - 53.6 °F 68% 29.94 in 10.0 mi SSW 5.8 mph - N/A   Mostly Cloudy
2:32 PM 62.6 °F - 55.4 °F 77% 29.95 in 10.0 mi SSW 9.2 mph - N/A Rain Light Rain
2:53 PM 60.8 °F - 55.4 °F 82% 29.95 in 7.0 mi SW 4.6 mph - N/A Rain Light Rain
3:13 PM 57.2 °F - 55.4 °F 94% 29.96 in 10.0 mi SW 8.1 mph - 0.05 in Rain Rain
3:32 PM 57.2 °F - 55.4 °F 94% 29.96 in 10.0 mi SW 5.8 mph - 0.09 in Rain Rain
3:53 PM 57.2 °F - 55.4 °F 94% 29.96 in 10.0 mi SSW 5.8 mph - 0.03 in Rain Rain
4:13 PM 57.2 °F - 55.4 °F 94% 29.95 in 7.0 mi South 5.8 mph - 0.09 in Rain Rain
4:32 PM 55.4 °F - 55.4 °F 100% 29.94 in 10.0 mi South 6.9 mph - 0.14 in Rain Rain
4:53 PM 55.4 °F - 55.4 °F 100% 29.94 in 10.0 mi SSE 9.2 mph - 0.02 in Rain Rain
5:13 PM 55.4 °F - 55.4 °F 100% 29.95 in 10.0 mi SSE 6.9 mph - 0.06 in Rain Rain
5:32 PM 55.4 °F - 55.4 °F 100% 29.96 in 10.0 mi South 5.8 mph - 0.11 in Rain Rain
5:53 PM 55.4 °F - 55.4 °F 100% 29.96 in 10.0 mi SSE 4.6 mph - 0.03 in Rain Rain
6:13 PM 55.4 °F - 53.6 °F 94% 29.97 in 7.0 mi South 5.8 mph - 0.07 in Rain Rain
6:33 PM 55.4 °F - 53.6 °F 94% 29.97 in 7.0 mi South 4.6 mph - 0.12 in Rain Rain
6:53 PM 53.6 °F - 53.6 °F 100% 29.98 in 7.0 mi South 3.5 mph - 0.03 in Rain Rain
7:13 PM 53.6 °F - 53.6 °F 100% 29.98 in 7.0 mi Calm Calm - 0.13 in Rain Heavy Rain
7:32 PM 53.6 °F - 53.6 °F 100% 29.96 in 10.0 mi SE 8.1 mph - 0.25 in Rain Heavy Rain
7:52 PM 53.6 °F - 53.6 °F 100% 29.95 in 10.0 mi SSE 11.5 mph - 0.03 in Rain Rain
8:13 PM 53.6 °F - 53.6 °F 100% 29.95 in 10.0 mi SSE 6.9 mph - 0.06 in Rain Light Rain
8:32 PM 53.6 °F - 53.6 °F 100% 29.96 in 10.0 mi Calm Calm - 0.08 in Rain Rain
8:52 PM 55.4 °F - 55.4 °F 100% 29.96 in 10.0 mi Calm Calm - 0.02 in Rain Rain
9:13 PM 55.4 °F - 55.4 °F 100% 29.96 in 10.0 mi Calm Calm - 0.04 in Rain Light Rain
9:33 PM 55.4 °F - 55.4 °F 100% 29.97 in 10.0 mi ESE 4.6 mph - 0.04 in   Drizzle
9:53 PM 55.4 °F - 55.4 °F 100% 29.97 in 10.0 mi East 3.5 mph - N/A   Light Drizzle
10:12 PM 53.6 °F - 53.6 °F 100% 29.97 in 10.0 mi SE 3.5 mph - N/A   Overcast
10:33 PM 53.6 °F - 53.6 °F 100% 29.97 in 10.0 mi Calm Calm - N/A   Overcast
10:53 PM 55.4 °F - 55.4 °F 100% 29.98 in 10.0 mi Calm Calm - N/A   Overcast
11:12 PM 55.4 °F - 55.4 °F 100% 29.98 in 10.0 mi Calm Calm - N/A   Overcast
11:33 PM 55.4 °F - 55.4 °F 100% 29.99 in 10.0 mi Calm Calm - N/A   Overcast
11:53 PM 53.6 °F - 53.6 °F 100% 29.98 in 10.0 mi Calm Calm - N/A   Overcast